Weather History for Cross City, FL

Change the Weather History Date:

Thursday, April 25, 2013

  Actual Average Record
Temperature  
Mean Temperature 70 °F 69 °F  
Max Temperature 84 °F 82 °F 87 °F (2006)
Min Temperature 55 °F 55 °F 39 °F (2005)
Degree Days  
Heating Degree Days 0 1  
Month to date heating degree days 31 46  
Since 1 July heating degree days 1124 1301  
Cooling Degree Days 5 4  
Month to date cooling degree days 124 82  
Year to date cooling degree days 242 156  
Growing Degree Days 20 (Base 50)    
Moisture  
Dew Point 61 °F    
Average Humidity 72    
Maximum Humidity 97    
Minimum Humidity 47    
Precipitation  
Precipitation 0.00 in 0.07 in 0.79 in (2003)
Month to date precipitation 2.78 2.70  
Year to date precipitation 7.50 14.22  
Sea Level Pressure  
Sea Level Pressure 30.18 in    
Wind  
Wind Speed 4 mph (NW)    
Max Wind Speed 15 mph    
Max Gust Speed 17 mph    
T = Trace of Precipitation, MM = Missing Value Source: NWS Daily Summary

Daily Weather History Graph

Daily Weather History Graph

Search for Another Location

Airport:

Trip Planner

Search our weather history database for the weather conditions in past years. The results will help you decide how hot, cold, wet, or windy it might be!

Date:

Astronomy

Apr. 25, 2013 Rise Set
Actual Time 6:55 AM EDT 8:05 PM EDT
Civil Twilight 6:30 AM EDT 8:30 PM EDT
Nautical Twilight 6:00 AM EDT 9:00 PM EDT
Astronomical Twilight 5:30 AM EDT 9:30 PM EDT
Moon 8:15 PM EDT (4/25) 6:37 AM EDT (4/25)
Length of Visible Light 14h 00m
Length of Day
13h 10m
Full, 100% of the Moon is Illuminated
Apr 25
Full
Apr 25
Full
May 2
Last Quarter
May 9
New
May 18
First Quarter

Hourly Weather History & Observations

Time (EDT) Temp. Heat Index Dew Point Humidity Pressure Visibility Wind Dir Wind Speed Gust Speed Precip Events Conditions
12:53 AM 59.0 °F - 55.9 °F 90% 30.14 in - Calm Calm - N/A   Unknown
1:53 AM 61.0 °F - 59.0 °F 93% 30.14 in - Calm Calm - N/A   Unknown
2:53 AM 59.0 °F - 57.0 °F 93% 30.12 in - Calm Calm - N/A   Unknown
3:53 AM 57.0 °F - 55.0 °F 93% 30.12 in - Calm Calm - N/A   Unknown
4:53 AM 55.9 °F - 53.1 °F 90% 30.13 in - Calm Calm - N/A   Unknown
5:53 AM 55.9 °F - 53.1 °F 90% 30.14 in - Calm Calm - N/A   Unknown
6:53 AM 55.0 °F - 52.0 °F 89% 30.16 in - Calm Calm - N/A   Unknown
7:53 AM 59.0 °F - 57.0 °F 93% 30.18 in - Calm Calm - N/A   Unknown
8:53 AM 70.0 °F - 62.1 °F 76% 30.19 in - Calm Calm - N/A   Unknown
9:53 AM 77.0 °F - 55.9 °F 48% 30.21 in - North 5.8 mph - N/A   Unknown
10:53 AM 79.0 °F - 64.0 °F 60% 30.22 in - NNE 4.6 mph - N/A   Unknown
11:53 AM 80.1 °F 81.5 °F 63.0 °F 56% 30.22 in - ESE 4.6 mph - N/A   Unknown
12:53 PM 81.0 °F 81.9 °F 62.1 °F 52% 30.21 in - Variable 5.8 mph - N/A   Unknown
1:53 PM 82.0 °F 82.7 °F 61.0 °F 49% 30.20 in - Variable 3.5 mph - N/A   Unknown
2:53 PM 81.0 °F 82.2 °F 63.0 °F 54% 30.19 in - NW 9.2 mph - N/A   Unknown
3:53 PM 82.9 °F 84.0 °F 63.0 °F 51% 30.17 in - West 9.2 mph - N/A   Unknown
4:53 PM 82.0 °F 83.4 °F 64.0 °F 54% 30.16 in - West 12.7 mph - N/A   Unknown
5:53 PM 82.0 °F 83.8 °F 64.9 °F 56% 30.16 in - NW 5.8 mph - N/A   Unknown
6:53 PM 80.1 °F 81.7 °F 64.0 °F 58% 30.17 in - West 9.2 mph - N/A   Unknown
7:53 PM 75.9 °F - 64.0 °F 67% 30.17 in - West 5.8 mph - N/A   Unknown
8:53 PM 73.0 °F - 64.9 °F 76% 30.19 in - West 3.5 mph - N/A   Unknown
9:53 PM 71.1 °F - 64.9 °F 81% 30.21 in - Calm Calm - N/A   Unknown
10:53 PM 70.0 °F - 64.9 °F 84% 30.22 in - NNW 4.6 mph - N/A   Unknown
11:53 PM 69.1 °F - 66.0 °F 90% 30.22 in - NNW 5.8 mph - N/A   Unknown